Погода в Татарском Умысе

Россия / Республика Мордовия     53°57′07″N   45°37′53″E
темп.,
°C
ветер,
м/с
пор.,
м/с
влажн.,
%
обл.,
%
осадки,
мм/ч
давл.,
гПа
погр.,
м
18 апреля, вс
вс1800:00+7всв396511 0.0 1019240
03:00+5всв347388 0.0 102075
06:00+5всв3868100 0.2 1020212
09:00+9всв475389 0.3 1020484
12:00+10св2457100 0.8 1020507
15:00+9св3768100 2.9 1021415
18:00+9ссв2365100 0.1 102057
21:00+7вюв1273100 0.2 102124
19 апреля, пн
пн1900:00+6св41078100 0.6 1022462
03:00+5всв51183100 0.8 1022381
06:00+4всв61374100 0.1 1022503
09:00+6всв71068100 0.1 1023718
12:00+8всв895196 0.0 10231114
15:00+9в7952100 0.0 10231421
18:00+7в71162100 0.0 10231002
21:00+5в7137195 0.0 1025727
20 апреля, вт
вт2000:00+4в6137454 0.0 1025694
03:00+5в61267100 0.0 1025857
06:00+4вюв61266100 0.0 1025944
09:00+5вюв81355100 0.0 1026955
12:00+8вюв8124654 0.0 10251183
15:00+10вюв81144100 0.0 10241438
18:00+8вюв81449100 0.0 10221223
21:00+6вюв81650100 0.0 10221025
21 апреля, ср
ср2100:00+5юв91751100 0.0 1020960
03:00+2вюв112183100 5.6 1018772
06:00+2юв102187100 1.6 1017890
09:00+2юв81991100 4.4 1017870
12:00+3юв91891100 0.0 1016843
15:00+3ююв81794100 0.2 1016759
18:00+3ююв81694100 0.0 1017632
21:00+3ю61397100 0.1 1019624
22 апреля, чт
чт2200:00+4ююв4998100 0.0 1020351
03:00+4ююв3698100 0.0 1021213
06:00+4ю2493100 0.0 1023146
09:00+8ю467665 0.0 1023676
12:00+12ююз466178 0.3 10231269
15:00+12ююз466097 0.4 10231274
18:00+10ю127736 0.5 102453
21:00+6юв399151 0.6 1025212